Simultaneous Nadir Overpasses (SNOs) Predictions

Prediction of SNOs between GOES-16 and LANDSAT-8 Satellite Orbit:

Table of predicted SNOs for the next 14.0 days since TLE Epoch: 3/28/2020
Index Date Time (GOES-16) GOES-16 Lat,Lon LANDSAT-8 Lat,Lon Distance(km) Time Diff (sec)
1 03/29/2020 02:57:10 0.03, -75.13 0.76, -71.71 388.32 80
2 03/29/2020 15:18:24 -0.03, -75.14 0.35, -76.87 196.32 80
3 03/31/2020 15:06:13 -0.03, -75.14 -0.32, -73.92 139.92 80
4 04/01/2020 03:30:16 0.03, -75.13 -0.79, -79.11 452.18 80
5 04/02/2020 14:54:00 -0.03, -75.14 -0.92, -70.96 476.27 80
6 04/03/2020 03:18:03 0.03, -75.13 -0.18, -76.15 115.69 80
7 04/05/2020 03:03:10 0.03, -75.14 0.43, -73.19 221.40 80
8 04/05/2020 15:27:05 -0.03, -75.16 0.68, -78.34 362.96 80
9 04/07/2020 15:14:53 -0.02, -75.17 0.00, -75.39 24.95 80
10 04/09/2020 15:00:00 -0.01, -75.19 -0.61, -72.43 313.96 80
11 04/10/2020 03:24:04 0.01, -75.18 -0.49, -77.63 277.31 80




NCC Satellite Simultaneous Nadir Overpasses (SNOs) Prediction Service
